Showing default

HULIANWANG DIGUI-39, 64960

Orbit data source: Space-Track

HULIANWANG DIGUI-39, 64960 is a payload satellite owned by Zhongguo Xingwang (CN) in LEO that was launched on Sun, 27 Jul 2025 UTC via a CHANG ZHENG 6A launch vehicle from the Taiyaun Space Center, China (TSC). Payload-class satellites include a variety of spacecraft equipped with specific instruments for various scientific and technological missions. These include communications satellites like Starlink; space stations such as the ISS; scientific satellites like the Hubble; Earth observation satellites from companies like Planet Labs, Umbra, and HawkEye 360; GPS; miniature CubeSats for education and research; and military/defense satellites.

Loading next visibility...
Identifier
64960, 2025-159E
Orbit
LEO
Country
Flag of CNCN / PRC
Related business
Manufacturer
CAST
Mission
Operational Civil Communications
Bus & Motor
GUOWANG C, Unknown motor
Mass
~800 kg wet, ~800 kg dry
Launch date (UTC)
2025-07-27 (4 months ago)
Launch vehicle
CHANG ZHENG 6A
Launch site
Taiyaun Space Center, China (TSC)
Object type
Payload
Rocket body
Debris
Shape & HBR
Box + 2 Pan, 2.7 m
Radar Cross Section
5.935 m², Large (>1 m²)

Expand to show TLE details & history
Last TLE update: 9 hours ago

TLE from 9 hours ago
0 HULIANWANG DIGUI-39
1 64960U 25159E   25342.61711348  .00000028  00000-0  31322-4 0  9999
2 64960  86.4959 346.7715 0001821  98.1825 261.9516 13.24411669 17900
Epoch: 2025-12-08T14:48Z
TLE epoch observation values (Epoch: 2025-12-08T14:48:38.604Z)
Latitude
0.00001°
Longitude
46.99707°
Altitude
1,171.003 km
Speed
7.268 km/s
True Right ascension
23h 07m 05s
True Declination
0° 00' 00"
Sunlit
Object was in daylight at epoch
Visualization orbit readout
Latitude
Unknown
Longitude
Unknown
Altitude
Unknown
Speed
Unknown
Apparent Right ascension
Unknown
Apparent Declination
Unknown
Sunlit
N/A
Visualization observer readout
Local Sidereal Time
21:56:19
Azimuth
Unknown
Elevation
Unknown
Doppler factor
Unknown
Orbital elements
Apogee altitude
1,166.409 km
Perigee altitude
1,163.662 km
Semi-major axis
7,543.173 km
Eccentricity
0.00018
Inclination
86.4959°
RAAN
346.7715°
Arg. of periapsis
98.1825°
True anomaly
261.93094°
Mean anomaly
261.9516°
Eccentric anomaly
261.94127°
Mean motion
3.31293 °/min
Orbital period
108.67 mins
BSTAR
0.000031322
Loading maneuver chart data...
Computing Atmospheric mass density...
Loading historical data...
Loading historical data...
Loading historical data...
Loading historical data...
Loading historical data...
Loading historical data...
Loading historical data...

Documentation

Showing up to 5 results
|